Weather History for Luxor, Egypt

Change the Weather History Date:

Monday, June 9, 2014

  Actual Average Record
Temperature  
Mean Temperature 86 °F -  
Max Temperature 100 °F 102 °F 114 °F (2002)
Min Temperature 71 °F 75 °F 69 °F (2001)
Cooling Degree Days 20    
Growing Degree Days 36 (Base 50)    
Moisture  
Dew Point 53 °F    
Average Humidity 29    
Maximum Humidity 44    
Minimum Humidity 16    
Precipitation  
Precipitation 0.00 in 0.00 in - ()
Sea Level Pressure  
Sea Level Pressure 29.75 in    
Wind  
Wind Speed 3 mph ()    
Max Wind Speed 10 mph    
Max Gust Speed -    
Visibility 6.0 miles    
Events      
Averages and records for this station are not official NWS values.
T = Trace of Precipitation, MM = Missing Value Source: Averaged Metar Reports

Daily Weather History Graph

Daily Weather History Graph

Search for Another Location

Airport:

Trip Planner

Search our weather history database for the weather conditions in past years. The results will help you decide how hot, cold, wet, or windy it might be!

Date:

Astronomy

Jun. 09, 2014 Rise Set
Actual Time 5:57 AM EEST 7:39 PM EEST
Civil Twilight 5:31 AM EEST 8:05 PM EEST
Nautical Twilight 5:00 AM EEST 8:36 PM EEST
Astronomical Twilight 4:27 AM EEST 9:09 PM EEST
Moon 3:58 PM EEST (6/9) 2:49 AM EEST (6/9)
Length of Visible Light 14h 33m
Length of Day
13h 42m
Waxing Gibbous, 83% of the Moon is Illuminated
Jun 9
Waxing Gibbous
Jun 13
Full
Jun 19
Last Quarter
Jun 27
New
Jul 5
First Quarter

Hourly Weather History & Observations

Time (EEST) Temp. Heat Index Dew Point Humidity Pressure Visibility Wind Dir Wind Speed Gust Speed Precip Events Conditions
12:00 AM 85 °F - 51 °F 20% 29.75 in 6 mi SSE 1.2 mph - -  
12:00 AM 84.2 °F - 50.0 °F 30% 29.74 in - SSE 1.2 mph - N/A   Clear
1:00 AM 82.4 °F - 50.0 °F 32% 29.74 in - SE 4.6 mph - N/A   Clear
2:00 AM 80.6 °F - 50.0 °F 34% 29.74 in - SSE 3.5 mph - N/A   Clear
3:00 AM 81 °F - 50 °F 23% 29.74 in 6 mi Calm Calm - -  
3:00 AM 80.6 °F - 50.0 °F 34% 29.74 in - Calm Calm - N/A   Clear
4:00 AM 77.0 °F - 46.4 °F 34% 29.74 in - Calm Calm - N/A   Clear
5:00 AM 75.2 °F - 48.2 °F 38% 29.74 in - Calm Calm - N/A   Clear
6:00 AM 72 °F - 49 °F 32% 29.75 in 6 mi Calm Calm - -  
6:00 AM 71.6 °F - 48.2 °F 43% 29.74 in - Calm Calm - N/A   Clear
7:00 AM 77.0 °F - 53.6 °F 44% 29.77 in - Calm Calm - N/A   Clear
8:00 AM 80.6 °F - 50.0 °F 34% 29.77 in - SE 2.3 mph - N/A   Clear
9:00 AM 86 °F - 53 °F 22% 29.78 in 6 mi East 2.3 mph - -  
9:00 AM 86.0 °F 84.2 °F 53.6 °F 33% 29.80 in - East 2.3 mph - N/A   Clear
10:00 AM 89.6 °F 87.7 °F 55.4 °F 31% 29.80 in - Calm Calm - N/A   Clear
11:00 AM 91.4 °F 89.9 °F 57.2 °F 31% 29.77 in - North 2.3 mph - N/A   Clear
12:00 PM 94 °F - 57 °F 20% 29.76 in 6 mi West 2.3 mph - -  
12:00 PM 95.0 °F 93.7 °F 57.2 °F 28% 29.77 in 6.2 mi NNW 10.4 mph - N/A   Partly Cloudy
1:00 PM 96.8 °F 94.4 °F 53.6 °F 23% 29.77 in - WNW 5.8 mph - N/A   Clear
2:00 PM 98.6 °F 97.6 °F 57.2 °F 25% 29.74 in - West 10.4 mph - N/A   Clear
3:00 PM 98 °F - 56 °F 16% 29.71 in 6 mi NNW 6.9 mph - -  
3:00 PM 98.6 °F 97.2 °F 55.4 °F 24% 29.71 in - NNW 6.9 mph - N/A   Clear
4:00 PM 98.6 °F 97.2 °F 55.4 °F 24% 29.71 in - NW 9.2 mph - N/A   Clear
5:00 PM 98.6 °F 97.6 °F 57.2 °F 25% 29.71 in - NW 9.2 mph - N/A   Clear
6:00 PM 98 °F - 56 °F 16% 29.70 in 6 mi NNW 6.9 mph - -  
6:00 PM 98.6 °F 97.2 °F 55.4 °F 24% 29.71 in - NNW 6.9 mph - N/A   Clear
7:00 PM 95.0 °F 93.0 °F 55.4 °F 26% 29.71 in - NW 5.8 mph - N/A   Clear
8:00 PM 91.4 °F 89.1 °F 53.6 °F 28% 29.74 in - WNW 4.6 mph - N/A   Clear
9:00 PM 89 °F - 55 °F 21% 29.74 in 6 mi WNW 3.5 mph - -  
9:00 PM 87.8 °F 86.1 °F 55.4 °F 33% 29.74 in - WNW 3.5 mph - N/A   Clear
10:00 PM 86.0 °F 84.2 °F 53.6 °F 33% 29.77 in - Calm Calm - N/A   Clear
11:00 PM 86.0 °F 84.2 °F 53.6 °F 33% 29.77 in - West 4.6 mph - N/A   Clear